SL-14 DEB, 45296

Orbit data source: Space-Track

SL-14 DEB, 45296 is space debris in LEO originally from a launch on Thu, 15 Aug 1991 UTC launched from the Plesetsk Missile And Space Complex (PKMTR). Debris objects in space refer to the collection of defunct objects orbiting the Earth. Examples of debris include non-operational satellites, rocket bodies, and fragments generated from explosions, collisions, or faulty payload assembly.

Loading next visibility...
SL-14 DEB details
Identifier
45296, 1991-056AJ
Orbit
LEO
Last TLE update19 hours ago
Origin
Flag of CISRosgidromet (CIS)
ManufacturerUnknown
MissionSpacecraft
Bus & MotorUnknown
MassUnknown
Launch date (UTC)
1991-08-15 (33 years ago)
Launch vehicleUnknown
Launch site
Plesetsk Missile And Space Complex (PKMTR)
Object type
Payload
Rocket body
Debris
Shape & HBRUnknown
Radar Cross SectionSmall (<0.1 m²)

Expand to show TLE details & history

TLE from 19 hours ago
0 SL-14 DEB
1 45296U 91056AJ  24360.65319063  .00012518  00000-0  12053-1 0  9994
2 45296  82.6363  75.2604 0189439 329.0450  29.9644 13.72286159240179
Epoch: 2024-12-25T15:40Z
Definitive object data (Epoch: 2024-12-25T15:40:35.67Z)
Latitude-0.00002°
Longitude105.46792°
Altitude873.971 km
Speed7.476 km/s
True Right ascension05h 01m 02s
True Declination0° 00' 00"
Sunlit
Object was in full shadow at TLE epoch
Visualization TLE readout
Latitude-62.54664°
Longitude-60.80445°
Altitude997.164 km
Speed7.361 km/s
Apparent Right ascension20h 11m 58s
Apparent Declination-55° 17' 17"
Sunlit
Object is in daylight
Visualization observer readout
Local Sidereal Time09:43:33
Azimuth142.987° SSE
Elevation-68.405°
Doppler factor1
Orbital elements
Apogee altitude1,128.091 km
Perigee altitude848.984 km
Semi-major axis7,366.675 km
Eccentricity0.0189439
Inclination82.6363°
RAAN75.2604°
Arg. of periapsis329.045°
True anomaly31.07126°
Mean anomaly29.9644°
Eccentric anomaly30.51554°
Mean motion3.4327 °/min
BSTAR0.012053
Orbital period104.87 mins
Loading maneuver chart data...
Loading historical data...
Loading historical data...
Loading historical data...
Loading historical data...
Loading historical data...
Loading historical data...
Loading historical data...

SL-14 DEB Visibility forecast

Observer location: undefined°, undefined

Span
Click to sort rows by Start time (UTC) header in descending order
Start Az.
Max El. time (UTC)
Max El. Az.
Max El.
End time (UTC)
End Az.
12 mins2024-12-26 16:45:23.157Z359.837° N2024-12-26 16:51:23.157Z85.861° E42.533°2024-12-26 16:57:23.157Z161.379° S
7 mins2024-12-26 18:33:23.157Z308.805° NW2024-12-26 18:36:23.157Z277.471° WNW19.807°2024-12-26 18:40:23.157Z238.373° WSW
6 mins2024-12-27 04:34:23.157Z112.962° SE2024-12-27 04:37:23.157Z76.644° E18.536°2024-12-27 04:40:23.157Z44.729° NE
10 mins2024-12-27 06:17:23.157Z206.243° SW2024-12-27 06:22:23.157Z293.928° NW39.585°2024-12-27 06:27:23.157Z357.173° N
|